Weather in Karpylivka

Ukraine / Chernihiv Region     50°36′24″N   33°02′57″E
temp.,
°C
wind,
m/s
gust,
m/s
humid.,
%
clouds,
%
prec.,
mm/h
press.,
hPa
HPBL,
m
20 january, thu
thu2023:00−8sw35925 0.0 102076
02:00−7ssw3697100 0.0 101892
05:00−7s499772 0.0 1016174
08:00−6ssw51295100 0.0 1015261
11:00−3ssw6129285 0.0 1013418
14:00−2ssw71387100 0.0 1010590
17:00−2ssw71488100 0.0 1008425
20:00−3ssw51286100 0.0 1007337
21 january, fri
fri2123:00−3ssw4997100 1.4 1005311
02:00−2ssw4997100 3.7 1004378
05:00−2w61191100 0.6 1003642
08:00−4wsw51196100 0.8 1004615
11:00−4wsw7128994 0.1 1004704
14:00−3wsw9149098 0.5 10031113
17:00−3wsw91694100 0.5 1003934
20:00−4wsw91687100 0.7 1004797
22 january, sat
sat2223:00−4wsw8158989 0.1 1005665
02:00−4sw7139498 0.3 1005564
05:00−4wsw599599 0.2 1005492
08:00−5wsw499577 0.4 1007336
11:00−4wsw579299 0.1 1008454
14:00−3wsw4688100 0.3 1008596
17:00−7ssw229697 0.0 101130
20:00−9sw229765 0.0 101310
23 january, sun
sun2323:00−11wsw119758 0.0 101410
02:00−12nnw119870 0.0 10169
05:00−11n119887 0.1 101719
08:00−11ne119892 0.1 101922
11:00−7ene2392100 0.1 1021226
14:00−5ene348896 0.1 1021455
17:00−6ene4688100 0.1 1023278
20:00−7ne479096 0.1 1025317
24 january, mon
mon2423:00−12nne379873 0.0 1026127
02:00−13nne4995100 0.0 1026180
05:00−12n51194100 0.0 1026246
08:00−11nnw6129298 0.0 1026270
11:00−9n6119192 0.0 1026364
14:00−8n5992100 0.1 1024413
17:00−9nnw4895100 0.0 1026262
20:00−9nnw4996100 0.1 1025267